Time,TemperatureF,DewpointF,PressureIn,WindDirection,WindDirectionDegrees,WindSpeedMPH,WindSpeedGustMPH,Humidity,HourlyPrecipIn,Conditions,Clouds,dailyrainin,SoftwareType,DateUTC
2013-05-26 00:02:00,68.1,60.6,30.08,South,176,0.0,1.0,77,0.00,,,0.00,Wunderground v.1.15,2013-05-26 05:02:00,
2013-05-26 00:07:00,68.1,60.6,30.08,South,174,0.0,2.0,77,0.00,,,0.00,Wunderground v.1.15,2013-05-26 05:07:00,
2013-05-26 00:12:00,67.9,60.4,30.08,SSE,157,0.0,1.0,77,0.00,,,0.00,Wunderground v.1.15,2013-05-26 05:12:00,
2013-05-26 00:18:00,67.6,60.5,30.07,SSE,157,0.0,1.0,78,0.00,,,0.00,Wunderground v.1.15,2013-05-26 05:18:00,
2013-05-26 00:23:00,67.4,60.3,30.07,SSE,157,0.0,3.0,78,0.00,,,0.00,Wunderground v.1.15,2013-05-26 05:23:00,
2013-05-26 00:28:00,67.3,60.6,30.07,SSE,154,3.0,3.0,79,0.00,,,0.00,Wunderground v.1.15,2013-05-26 05:28:00,
2013-05-26 00:34:00,66.9,60.2,30.08,SSE,154,0.0,0.0,79,0.00,,,0.00,Wunderground v.1.15,2013-05-26 05:34:00,
2013-05-26 00:40:00,66.6,59.9,30.08,SSE,154,0.0,0.0,79,0.00,,,0.00,Wunderground v.1.15,2013-05-26 05:40:00,
2013-05-26 00:46:00,66.4,60.0,30.09,SSE,154,0.0,0.0,80,0.00,,,0.00,Wunderground v.1.15,2013-05-26 05:46:00,
2013-05-26 00:51:00,66.0,59.7,30.09,SSE,154,0.0,0.0,80,0.00,,,0.00,Wunderground v.1.15,2013-05-26 05:51:00,
2013-05-26 00:56:00,65.6,59.6,30.09,SSE,154,0.0,0.0,81,0.00,,,0.00,Wunderground v.1.15,2013-05-26 05:56:00,
2013-05-26 01:02:00,65.6,60.0,30.08,South,175,0.0,0.0,82,0.00,,,0.00,Wunderground v.1.15,2013-05-26 06:02:00,
2013-05-26 01:08:00,66.0,60.3,30.08,SSE,153,0.0,3.0,82,0.00,,,0.00,Wunderground v.1.15,2013-05-26 06:08:00,
2013-05-26 01:14:00,66.1,60.4,30.08,SSE,153,0.0,1.0,82,0.00,,,0.00,Wunderground v.1.15,2013-05-26 06:14:00,
2013-05-26 01:19:00,66.0,60.3,30.08,SSE,153,0.0,1.0,82,0.00,,,0.00,Wunderground v.1.15,2013-05-26 06:19:00,
2013-05-26 01:25:00,66.0,60.3,30.08,SSE,153,0.0,0.0,82,0.00,,,0.00,Wunderground v.1.15,2013-05-26 06:25:00,
2013-05-26 01:31:00,66.0,60.3,30.08,SSE,153,0.0,0.0,82,0.00,,,0.00,Wunderground v.1.15,2013-05-26 06:31:00,
2013-05-26 01:37:00,65.8,60.2,30.08,SSE,153,2.0,2.0,82,0.00,,,0.00,Wunderground v.1.15,2013-05-26 06:37:00,
2013-05-26 01:43:00,65.6,60.0,30.08,SSE,153,0.0,0.0,82,0.00,,,0.00,Wunderground v.1.15,2013-05-26 06:43:00,
2013-05-26 01:49:00,65.5,59.9,30.08,SSE,153,0.0,0.0,82,0.00,,,0.00,Wunderground v.1.15,2013-05-26 06:49:00,
2013-05-26 01:54:00,65.5,60.2,30.08,SSE,153,0.0,0.0,83,0.00,,,0.00,Wunderground v.1.15,2013-05-26 06:54:00,
2013-05-26 01:59:00,65.3,60.0,30.08,SSE,153,0.0,0.0,83,0.00,,,0.00,Wunderground v.1.15,2013-05-26 06:59:00,
2013-05-26 02:04:00,65.3,60.0,30.08,SSE,153,2.0,3.0,83,0.00,,,0.00,Wunderground v.1.15,2013-05-26 07:04:00,
2013-05-26 02:09:00,65.3,60.0,30.08,SSE,153,3.0,4.0,83,0.00,,,0.00,Wunderground v.1.15,2013-05-26 07:09:00,
2013-05-26 02:14:00,65.3,60.0,30.08,SSE,153,0.0,4.0,83,0.00,,,0.00,Wunderground v.1.15,2013-05-26 07:14:00,
2013-05-26 02:19:00,65.3,60.0,30.06,SE,136,2.0,4.0,83,0.00,,,0.00,Wunderground v.1.15,2013-05-26 07:19:00,
2013-05-26 02:24:00,65.2,59.9,30.06,SE,136,0.0,5.0,83,0.00,,,0.00,Wunderground v.1.15,2013-05-26 07:24:00,
2013-05-26 02:29:00,65.2,59.9,30.06,SE,134,4.0,5.0,83,0.00,,,0.00,Wunderground v.1.15,2013-05-26 07:29:00,
2013-05-26 02:34:00,65.2,59.9,30.06,ESE,119,4.0,7.0,83,0.00,,,0.00,Wunderground v.1.15,2013-05-26 07:34:00,
2013-05-26 02:39:00,65.2,59.9,30.06,SE,139,5.0,7.0,83,0.00,,,0.00,Wunderground v.1.15,2013-05-26 07:39:00,
2013-05-26 02:44:00,65.2,59.6,30.06,SSE,155,0.0,5.0,82,0.00,,,0.00,Wunderground v.1.15,2013-05-26 07:44:00,
2013-05-26 02:49:00,65.2,59.6,30.06,SE,146,3.0,6.0,82,0.00,,,0.00,Wunderground v.1.15,2013-05-26 07:49:00,
2013-05-26 02:55:00,65.0,59.4,30.06,SE,137,3.0,6.0,82,0.00,,,0.00,Wunderground v.1.15,2013-05-26 07:55:00,
2013-05-26 03:00:00,65.0,59.4,30.06,SSE,164,3.0,3.0,82,0.00,,,0.00,Wunderground v.1.15,2013-05-26 08:00:00,
2013-05-26 03:05:00,65.0,59.4,30.05,South,169,3.0,6.0,82,0.00,,,0.00,Wunderground v.1.15,2013-05-26 08:05:00,
2013-05-26 03:10:00,64.8,59.5,30.05,SE,136,0.0,2.0,83,0.00,,,0.00,Wunderground v.1.15,2013-05-26 08:10:00,
2013-05-26 03:15:00,64.8,59.5,30.05,South,175,2.0,4.0,83,0.00,,,0.00,Wunderground v.1.15,2013-05-26 08:15:00,
2013-05-26 03:20:00,64.7,59.4,30.04,SSW,195,2.0,2.0,83,0.00,,,0.00,Wunderground v.1.15,2013-05-26 08:20:00,
2013-05-26 03:25:00,64.5,59.2,30.04,SE,130,2.0,5.0,83,0.00,,,0.00,Wunderground v.1.15,2013-05-26 08:25:00,
2013-05-26 03:30:00,64.5,59.2,30.04,SE,130,0.0,1.0,83,0.00,,,0.00,Wunderground v.1.15,2013-05-26 08:30:00,
2013-05-26 03:35:00,64.3,59.0,30.04,SE,130,0.0,3.0,83,0.00,,,0.00,Wunderground v.1.15,2013-05-26 08:35:00,
2013-05-26 03:40:00,64.2,59.3,30.04,SE,130,0.0,0.0,84,0.00,,,0.00,Wunderground v.1.15,2013-05-26 08:40:00,
2013-05-26 03:45:00,64.0,59.1,30.05,SE,130,0.0,0.0,84,0.00,,,0.00,Wunderground v.1.15,2013-05-26 08:45:00,
2013-05-26 03:50:00,63.7,58.8,30.05,SE,130,0.0,0.0,84,0.00,,,0.00,Wunderground v.1.15,2013-05-26 08:50:00,
2013-05-26 03:56:00,63.4,58.5,30.05,SE,130,0.0,0.0,84,0.00,,,0.00,Wunderground v.1.15,2013-05-26 08:56:00,
2013-05-26 04:01:00,63.1,58.5,30.05,SE,130,0.0,0.0,85,0.00,,,0.00,Wunderground v.1.15,2013-05-26 09:01:00,
2013-05-26 04:06:00,62.7,58.1,30.05,SE,130,0.0,0.0,85,0.00,,,0.00,Wunderground v.1.15,2013-05-26 09:06:00,
2013-05-26 04:11:00,62.4,58.2,30.05,SE,130,0.0,0.0,86,0.00,,,0.00,Wunderground v.1.15,2013-05-26 09:11:00,
2013-05-26 04:16:00,62.1,57.9,30.04,SE,130,0.0,0.0,86,0.00,,,0.00,Wunderground v.1.15,2013-05-26 09:16:00,
2013-05-26 04:21:00,61.8,57.6,30.04,SE,130,0.0,0.0,86,0.00,,,0.00,Wunderground v.1.15,2013-05-26 09:21:00,
2013-05-26 04:26:00,61.6,57.7,30.04,SE,130,0.0,4.0,87,0.00,,,0.00,Wunderground v.1.15,2013-05-26 09:26:00,
2013-05-26 04:31:00,61.6,58.0,30.04,SE,130,0.0,0.0,88,0.00,,,0.00,Wunderground v.1.15,2013-05-26 09:31:00,
2013-05-26 04:36:00,61.6,58.3,30.04,SE,130,0.0,0.0,89,0.00,,,0.00,Wunderground v.1.15,2013-05-26 09:36:00,
2013-05-26 04:41:00,61.5,58.2,30.04,SE,130,0.0,0.0,89,0.00,,,0.00,Wunderground v.1.15,2013-05-26 09:41:00,
2013-05-26 04:46:00,61.3,58.0,30.04,SE,130,0.0,1.0,89,0.00,,,0.00,Wunderground v.1.15,2013-05-26 09:46:00,
2013-05-26 04:51:00,61.3,58.0,30.04,SE,130,0.0,1.0,89,0.00,,,0.00,Wunderground v.1.15,2013-05-26 09:51:00,
2013-05-26 04:56:00,61.3,58.0,30.04,SE,130,0.0,1.0,89,0.00,,,0.00,Wunderground v.1.15,2013-05-26 09:56:00,
2013-05-26 05:01:00,61.3,58.0,30.05,SE,130,0.0,0.0,89,0.00,,,0.00,Wunderground v.1.15,2013-05-26 10:01:00,
2013-05-26 05:07:00,61.2,58.2,30.05,SE,130,0.0,0.0,90,0.00,,,0.00,Wunderground v.1.15,2013-05-26 10:07:00,
2013-05-26 05:12:00,61.0,58.0,30.05,SE,130,0.0,0.0,90,0.00,,,0.00,Wunderground v.1.15,2013-05-26 10:12:00,
2013-05-26 05:17:00,61.2,58.2,30.05,SE,130,0.0,0.0,90,0.00,,,0.00,Wunderground v.1.15,2013-05-26 10:17:00,
2013-05-26 05:22:00,61.2,58.2,30.05,SE,130,0.0,0.0,90,0.00,,,0.00,Wunderground v.1.15,2013-05-26 10:22:00,
2013-05-26 05:27:00,61.2,58.2,30.05,SE,130,0.0,0.0,90,0.00,,,0.00,Wunderground v.1.15,2013-05-26 10:27:00,
2013-05-26 05:32:00,61.2,58.2,30.05,SE,130,0.0,1.0,90,0.00,,,0.00,Wunderground v.1.15,2013-05-26 10:32:00,
2013-05-26 05:37:00,61.0,58.0,30.05,SE,130,0.0,3.0,90,0.00,,,0.00,Wunderground v.1.15,2013-05-26 10:37:00,
2013-05-26 05:42:00,61.0,58.0,30.05,SE,130,1.0,1.0,90,0.00,,,0.00,Wunderground v.1.15,2013-05-26 10:42:00,
2013-05-26 05:47:00,61.2,58.2,30.05,SE,130,1.0,4.0,90,0.00,,,0.00,Wunderground v.1.15,2013-05-26 10:47:00,
2013-05-26 05:52:00,61.3,58.3,30.05,SE,130,0.0,3.0,90,0.00,,,0.00,Wunderground v.1.15,2013-05-26 10:52:00,
2013-05-26 05:57:00,61.3,58.3,30.05,SE,130,0.0,3.0,90,0.00,,,0.00,Wunderground v.1.15,2013-05-26 10:57:00,
2013-05-26 06:02:00,61.2,58.2,30.05,SE,130,0.0,3.0,90,0.00,,,0.00,Wunderground v.1.15,2013-05-26 11:02:00,
2013-05-26 06:07:00,61.2,58.2,30.05,SE,130,0.0,3.0,90,0.00,,,0.00,Wunderground v.1.15,2013-05-26 11:07:00,
2013-05-26 06:12:00,61.2,58.2,30.05,SE,130,2.0,3.0,90,0.00,,,0.00,Wunderground v.1.15,2013-05-26 11:12:00,
2013-05-26 06:17:00,61.3,58.3,30.05,SSE,155,0.0,6.0,90,0.00,,,0.00,Wunderground v.1.15,2013-05-26 11:17:00,
2013-05-26 06:22:00,61.5,58.2,30.05,SE,139,0.0,4.0,89,0.00,,,0.00,Wunderground v.1.15,2013-05-26 11:22:00,
2013-05-26 06:27:00,61.5,58.2,30.05,ESE,109,0.0,4.0,89,0.00,,,0.00,Wunderground v.1.15,2013-05-26 11:27:00,
2013-05-26 06:32:00,61.6,58.3,30.05,SE,129,0.0,2.0,89,0.00,,,0.00,Wunderground v.1.15,2013-05-26 11:32:00,
2013-05-26 06:37:00,61.8,58.5,30.05,SE,129,1.0,4.0,89,0.00,,,0.00,Wunderground v.1.15,2013-05-26 11:37:00,
2013-05-26 06:42:00,61.8,58.2,30.05,SE,129,0.0,4.0,88,0.00,,,0.00,Wunderground v.1.15,2013-05-26 11:42:00,
2013-05-26 06:47:00,62.0,58.4,30.06,SE,129,0.0,4.0,88,0.00,,,0.00,Wunderground v.1.15,2013-05-26 11:47:00,
2013-05-26 06:52:00,62.1,58.5,30.06,SE,130,1.0,3.0,88,0.00,,,0.00,Wunderground v.1.15,2013-05-26 11:52:00,
2013-05-26 06:57:00,62.4,58.5,30.06,SSE,152,0.0,6.0,87,0.00,,,0.00,Wunderground v.1.15,2013-05-26 11:57:00,
2013-05-26 07:02:00,62.6,58.4,30.06,SSE,150,4.0,4.0,86,0.00,,,0.00,Wunderground v.1.15,2013-05-26 12:02:00,
2013-05-26 07:07:00,62.9,58.6,30.06,SE,145,0.0,6.0,86,0.00,,,0.00,Wunderground v.1.15,2013-05-26 12:07:00,
2013-05-26 07:13:00,63.1,58.5,30.06,SE,145,4.0,6.0,85,0.00,,,0.00,Wunderground v.1.15,2013-05-26 12:13:00,
2013-05-26 07:18:00,63.4,58.5,30.07,SE,144,6.0,6.0,84,0.00,,,0.00,Wunderground v.1.15,2013-05-26 12:18:00,
2013-05-26 07:23:00,63.7,58.8,30.07,SE,135,0.0,3.0,84,0.00,,,0.00,Wunderground v.1.15,2013-05-26 12:23:00,
2013-05-26 07:28:00,63.9,58.6,30.07,SE,135,1.0,5.0,83,0.00,,,0.00,Wunderground v.1.15,2013-05-26 12:28:00,
2013-05-26 07:33:00,64.2,58.6,30.07,SSE,157,0.0,8.0,82,0.00,,,0.00,Wunderground v.1.15,2013-05-26 12:33:00,
2013-05-26 07:38:00,64.3,58.7,30.07,SSE,163,0.0,8.0,82,0.00,,,0.00,Wunderground v.1.15,2013-05-26 12:38:00,
2013-05-26 07:43:00,64.7,59.1,30.07,SE,128,3.0,6.0,82,0.00,,,0.00,Wunderground v.1.15,2013-05-26 12:43:00,
2013-05-26 07:48:00,64.8,58.8,30.06,SE,142,1.0,6.0,81,0.00,,,0.00,Wunderground v.1.15,2013-05-26 12:48:00,
2013-05-26 07:53:00,65.0,59.0,30.06,SE,142,2.0,4.0,81,0.00,,,0.00,Wunderground v.1.15,2013-05-26 12:53:00,
2013-05-26 07:58:00,65.3,59.0,30.06,SE,135,4.0,5.0,80,0.00,,,0.00,Wunderground v.1.15,2013-05-26 12:58:00,
2013-05-26 08:03:00,65.6,59.3,30.06,SSE,154,3.0,3.0,80,0.00,,,0.00,Wunderground v.1.15,2013-05-26 13:03:00,
2013-05-26 08:08:00,66.0,59.7,30.06,SE,130,0.0,4.0,80,0.00,,,0.00,Wunderground v.1.15,2013-05-26 13:08:00,
2013-05-26 08:13:00,66.3,59.6,30.06,SE,131,0.0,3.0,79,0.00,,,0.00,Wunderground v.1.15,2013-05-26 13:13:00,
2013-05-26 08:18:00,66.6,59.9,30.06,ESE,119,0.0,6.0,79,0.00,,,0.00,Wunderground v.1.15,2013-05-26 13:18:00,
2013-05-26 08:23:00,66.9,60.2,30.06,SSE,148,3.0,3.0,79,0.00,,,0.00,Wunderground v.1.15,2013-05-26 13:23:00,
2013-05-26 08:28:00,67.4,60.3,30.06,SE,144,1.0,7.0,78,0.00,,,0.00,Wunderground v.1.15,2013-05-26 13:28:00,
2013-05-26 08:33:00,67.9,60.4,30.06,SE,146,0.0,4.0,77,0.00,,,0.00,Wunderground v.1.15,2013-05-26 13:33:00,
2013-05-26 08:38:00,68.3,60.8,30.06,SE,128,1.0,6.0,77,0.00,,,0.00,Wunderground v.1.15,2013-05-26 13:38:00,
2013-05-26 08:43:00,68.6,60.7,30.06,South,173,3.0,5.0,76,0.00,,,0.00,Wunderground v.1.15,2013-05-26 13:43:00,
2013-05-26 08:48:00,68.8,60.9,30.06,SE,142,3.0,12.0,76,0.00,,,0.00,Wunderground v.1.15,2013-05-26 13:48:00,
2013-05-26 08:53:00,69.1,61.2,30.06,SSE,165,1.0,5.0,76,0.00,,,0.00,Wunderground v.1.15,2013-05-26 13:53:00,
2013-05-26 08:58:00,69.4,61.1,30.06,SSE,165,4.0,7.0,75,0.00,,,0.00,Wunderground v.1.15,2013-05-26 13:58:00,
2013-05-26 09:03:00,69.6,61.3,30.06,SE,124,0.0,8.0,75,0.00,,,0.00,Wunderground v.1.15,2013-05-26 14:03:00,
2013-05-26 09:08:00,69.9,61.6,30.06,SE,131,0.0,8.0,75,0.00,,,0.00,Wunderground v.1.15,2013-05-26 14:08:00,
2013-05-26 09:13:00,70.3,61.6,30.06,SE,130,7.0,8.0,74,0.00,,,0.00,Wunderground v.1.15,2013-05-26 14:13:00,
2013-05-26 09:18:00,70.8,61.7,30.06,SSE,161,4.0,10.0,73,0.00,,,0.00,Wunderground v.1.15,2013-05-26 14:18:00,
2013-05-26 09:24:00,71.3,62.2,30.06,ESE,115,1.0,6.0,73,0.00,,,0.00,Wunderground v.1.15,2013-05-26 14:24:00,
2013-05-26 09:29:00,71.8,62.7,30.06,SSE,151,3.0,7.0,73,0.00,,,0.00,Wunderground v.1.15,2013-05-26 14:29:00,
2013-05-26 09:34:00,72.1,62.6,30.06,SSE,155,2.0,11.0,72,0.00,,,0.00,Wunderground v.1.15,2013-05-26 14:34:00,
2013-05-26 09:39:00,72.5,63.0,30.06,SSW,209,5.0,11.0,72,0.00,,,0.00,Wunderground v.1.15,2013-05-26 14:39:00,
2013-05-26 09:44:00,73.2,63.2,30.06,SSE,167,4.0,4.0,71,0.00,,,0.00,Wunderground v.1.15,2013-05-26 14:44:00,
2013-05-26 09:49:00,73.9,63.5,30.06,ESE,123,4.0,8.0,70,0.00,,,0.00,Wunderground v.1.15,2013-05-26 14:49:00,
2013-05-26 09:54:00,74.4,63.6,30.06,SSE,155,8.0,8.0,69,0.00,,,0.00,Wunderground v.1.15,2013-05-26 14:54:00,
2013-05-26 09:59:00,74.7,63.4,30.06,SSE,167,3.0,9.0,68,0.00,,,0.00,Wunderground v.1.15,2013-05-26 14:59:00,
2013-05-26 10:04:00,75.1,63.8,30.06,SSW,202,0.0,8.0,68,0.00,,,0.00,Wunderground v.1.15,2013-05-26 15:04:00,
2013-05-26 10:09:00,75.3,63.6,30.06,SSE,152,6.0,9.0,67,0.00,,,0.00,Wunderground v.1.15,2013-05-26 15:09:00,
2013-05-26 10:14:00,75.4,63.7,30.06,SE,139,7.0,12.0,67,0.00,,,0.00,Wunderground v.1.15,2013-05-26 15:14:00,
2013-05-26 10:19:00,75.8,63.2,30.06,SE,143,8.0,12.0,65,0.00,,,0.00,Wunderground v.1.15,2013-05-26 15:19:00,
2013-05-26 10:24:00,76.1,63.5,30.06,SSE,168,3.0,5.0,65,0.00,,,0.00,Wunderground v.1.15,2013-05-26 15:24:00,
2013-05-26 10:29:00,76.3,62.8,30.06,SE,138,8.0,12.0,63,0.00,,,0.00,Wunderground v.1.15,2013-05-26 15:29:00,
2013-05-26 10:34:00,76.5,63.0,30.06,South,171,3.0,15.0,63,0.00,,,0.00,Wunderground v.1.15,2013-05-26 15:34:00,
2013-05-26 10:39:00,76.8,63.7,30.06,South,175,2.0,15.0,64,0.00,,,0.00,Wunderground v.1.15,2013-05-26 15:39:00,
2013-05-26 10:44:00,77.2,63.6,30.06,SW,217,3.0,5.0,63,0.00,,,0.00,Wunderground v.1.15,2013-05-26 15:44:00,
2013-05-26 10:49:00,77.6,63.5,30.05,SSE,162,5.0,10.0,62,0.00,,,0.00,Wunderground v.1.15,2013-05-26 15:49:00,
2013-05-26 10:54:00,77.6,63.5,30.05,SSW,211,1.0,7.0,62,0.00,,,0.00,Wunderground v.1.15,2013-05-26 15:54:00,
2013-05-26 10:59:00,78.1,64.5,30.05,SE,140,1.0,9.0,63,0.00,,,0.00,Wunderground v.1.15,2013-05-26 15:59:00,
2013-05-26 11:04:00,78.1,63.6,30.05,South,182,9.0,10.0,61,0.00,,,0.00,Wunderground v.1.15,2013-05-26 16:04:00,
2013-05-26 11:09:00,78.1,64.0,30.05,South,180,0.0,10.0,62,0.00,,,0.00,Wunderground v.1.15,2013-05-26 16:09:00,
2013-05-26 11:14:00,78.5,64.9,30.05,SSW,211,0.0,10.0,63,0.00,,,0.00,Wunderground v.1.15,2013-05-26 16:14:00,
2013-05-26 11:19:00,78.5,64.4,30.05,SSE,156,3.0,10.0,62,0.00,,,0.00,Wunderground v.1.15,2013-05-26 16:19:00,
2013-05-26 11:24:00,78.8,64.2,30.05,SSW,196,1.0,12.0,61,0.00,,,0.00,Wunderground v.1.15,2013-05-26 16:24:00,
2013-05-26 11:29:00,78.8,64.7,30.05,South,169,6.0,12.0,62,0.00,,,0.00,Wunderground v.1.15,2013-05-26 16:29:00,
2013-05-26 11:34:00,78.5,64.4,30.05,South,178,6.0,10.0,62,0.00,,,0.00,Wunderground v.1.15,2013-05-26 16:34:00,
2013-05-26 11:39:00,78.6,64.9,30.05,WSW,253,0.0,10.0,63,0.00,,,0.00,Wunderground v.1.15,2013-05-26 16:39:00,
2013-05-26 11:44:00,78.8,65.1,30.05,SSW,192,10.0,10.0,63,0.00,,,0.00,Wunderground v.1.15,2013-05-26 16:44:00,
2013-05-26 11:49:00,79.2,64.6,30.05,ESE,117,4.0,10.0,61,0.00,,,0.00,Wunderground v.1.15,2013-05-26 16:49:00,
2013-05-26 11:55:00,79.2,65.1,30.05,SSE,168,3.0,12.0,62,0.00,,,0.00,Wunderground v.1.15,2013-05-26 16:55:00,
2013-05-26 12:00:00,79.2,65.1,30.05,SSW,198,4.0,4.0,62,0.00,,,0.00,Wunderground v.1.15,2013-05-26 17:00:00,
2013-05-26 12:05:00,79.2,65.5,30.05,SSW,209,6.0,9.0,63,0.00,,,0.00,Wunderground v.1.15,2013-05-26 17:05:00,
2013-05-26 12:10:00,79.2,65.1,30.05,SSW,212,6.0,6.0,62,0.00,,,0.00,Wunderground v.1.15,2013-05-26 17:10:00,
2013-05-26 12:15:00,79.0,64.9,30.05,SE,137,2.0,10.0,62,0.00,,,0.00,Wunderground v.1.15,2013-05-26 17:15:00,
2013-05-26 12:20:00,79.6,65.0,30.05,SW,215,4.0,9.0,61,0.00,,,0.00,Wunderground v.1.15,2013-05-26 17:20:00,
2013-05-26 12:25:00,79.8,65.6,30.05,SSE,155,5.0,9.0,62,0.00,,,0.00,Wunderground v.1.15,2013-05-26 17:25:00,
2013-05-26 12:31:00,79.8,65.6,30.04,SSW,194,5.0,6.0,62,0.00,,,0.00,Wunderground v.1.15,2013-05-26 17:31:00,
2013-05-26 12:36:00,79.9,65.7,30.04,SSW,192,0.0,6.0,62,0.00,,,0.00,Wunderground v.1.15,2013-05-26 17:36:00,
2013-05-26 12:41:00,80.1,67.7,30.04,South,177,6.0,6.0,66,0.00,,,0.00,Wunderground v.1.15,2013-05-26 17:41:00,
2013-05-26 12:46:00,80.3,66.1,30.04,SE,144,5.0,7.0,62,0.00,,,0.00,Wunderground v.1.15,2013-05-26 17:46:00,
2013-05-26 12:51:00,80.5,66.3,30.04,SE,144,2.0,4.0,62,0.00,,,0.00,Wunderground v.1.15,2013-05-26 17:51:00,
2013-05-26 12:56:00,80.9,65.7,30.04,South,178,3.0,10.0,60,0.00,,,0.00,Wunderground v.1.15,2013-05-26 17:56:00,
2013-05-26 13:01:00,81.2,66.0,30.03,SSE,161,10.0,10.0,60,0.00,,,0.00,Wunderground v.1.15,2013-05-26 18:01:00,
2013-05-26 13:06:00,81.4,65.2,30.03,SE,132,3.0,12.0,58,0.00,,,0.00,Wunderground v.1.15,2013-05-26 18:06:00,
2013-05-26 13:11:00,81.4,66.2,30.03,South,171,2.0,5.0,60,0.00,,,0.00,Wunderground v.1.15,2013-05-26 18:11:00,
2013-05-26 13:16:00,81.8,66.1,30.02,South,184,1.0,6.0,59,0.00,,,0.00,Wunderground v.1.15,2013-05-26 18:16:00,
2013-05-26 13:21:00,82.0,66.3,30.02,SW,225,2.0,5.0,59,0.00,,,0.00,Wunderground v.1.15,2013-05-26 18:21:00,
2013-05-26 13:26:00,81.8,65.1,30.02,South,190,10.0,10.0,57,0.00,,,0.00,Wunderground v.1.15,2013-05-26 18:26:00,
2013-05-26 13:31:00,82.2,66.0,30.02,SSE,158,9.0,10.0,58,0.00,,,0.00,Wunderground v.1.15,2013-05-26 18:31:00,
2013-05-26 13:36:00,82.4,65.6,30.02,SE,137,12.0,12.0,57,0.00,,,0.00,Wunderground v.1.15,2013-05-26 18:36:00,
2013-05-26 13:41:00,82.4,65.1,30.02,SW,229,4.0,4.0,56,0.00,,,0.00,Wunderground v.1.15,2013-05-26 18:41:00,
2013-05-26 13:46:00,82.6,65.3,30.01,SW,218,5.0,8.0,56,0.00,,,0.00,Wunderground v.1.15,2013-05-26 18:46:00,
2013-05-26 13:51:00,82.8,64.5,30.01,SW,214,0.0,9.0,54,0.00,,,0.00,Wunderground v.1.15,2013-05-26 18:51:00,
2013-05-26 13:56:00,82.8,64.5,30.01,SSE,162,4.0,9.0,54,0.00,,,0.00,Wunderground v.1.15,2013-05-26 18:56:00,
2013-05-26 14:01:00,82.8,64.5,30.00,East,90,9.0,11.0,54,0.00,,,0.00,Wunderground v.1.15,2013-05-26 19:01:00,
2013-05-26 14:06:00,83.0,63.6,30.00,SW,221,3.0,11.0,52,0.00,,,0.00,Wunderground v.1.15,2013-05-26 19:06:00,
2013-05-26 14:11:00,83.2,63.2,30.00,SW,219,1.0,11.0,51,0.00,,,0.00,Wunderground v.1.15,2013-05-26 19:11:00,
2013-05-26 14:16:00,83.6,65.7,30.00,SSE,153,3.0,13.0,55,0.00,,,0.00,Wunderground v.1.15,2013-05-26 19:16:00,
2013-05-26 14:21:00,83.8,64.3,30.00,SSW,200,1.0,7.0,52,0.00,,,0.00,Wunderground v.1.15,2013-05-26 19:21:00,
2013-05-26 14:26:00,83.8,64.3,30.00,SSE,163,0.0,10.0,52,0.00,,,0.00,Wunderground v.1.15,2013-05-26 19:26:00,
2013-05-26 14:31:00,83.8,63.2,29.99,SE,132,6.0,9.0,50,0.00,,,0.00,Wunderground v.1.15,2013-05-26 19:31:00,
2013-05-26 14:36:00,83.2,64.3,29.99,SSE,167,2.0,9.0,53,0.00,,,0.00,Wunderground v.1.15,2013-05-26 19:36:00,
2013-05-26 14:41:00,82.4,63.0,29.99,South,178,6.0,6.0,52,0.00,,,0.00,Wunderground v.1.15,2013-05-26 19:41:00,
2013-05-26 14:47:00,82.4,63.0,30.00,SSE,156,1.0,12.0,52,0.00,,,0.00,Wunderground v.1.15,2013-05-26 19:47:00,
2013-05-26 14:52:00,83.0,64.1,30.00,SE,138,6.0,6.0,53,0.00,,,0.00,Wunderground v.1.15,2013-05-26 19:52:00,
2013-05-26 14:57:00,83.2,62.6,30.00,SE,140,1.0,12.0,50,0.00,,,0.00,Wunderground v.1.15,2013-05-26 19:57:00,
2013-05-26 15:02:00,83.4,63.9,29.99,SSE,154,0.0,10.0,52,0.00,,,0.00,Wunderground v.1.15,2013-05-26 20:02:00,
2013-05-26 15:07:00,83.6,63.0,29.99,WSW,250,1.0,10.0,50,0.00,,,0.00,Wunderground v.1.15,2013-05-26 20:07:00,
2013-05-26 15:12:00,83.2,62.6,29.99,South,175,2.0,6.0,50,0.00,,,0.00,Wunderground v.1.15,2013-05-26 20:12:00,
2013-05-26 15:17:00,83.4,62.2,29.99,SE,141,4.0,14.0,49,0.00,,,0.00,Wunderground v.1.15,2013-05-26 20:17:00,
2013-05-26 15:22:00,83.4,63.4,29.99,SSW,210,1.0,7.0,51,0.00,,,0.00,Wunderground v.1.15,2013-05-26 20:22:00,
2013-05-26 15:27:00,83.2,62.1,29.99,SW,222,1.0,13.0,49,0.00,,,0.00,Wunderground v.1.15,2013-05-26 20:27:00,
2013-05-26 15:32:00,83.4,62.2,29.98,SSE,166,5.0,6.0,49,0.00,,,0.00,Wunderground v.1.15,2013-05-26 20:32:00,
2013-05-26 15:37:00,83.4,61.7,29.98,SSE,161,0.0,11.0,48,0.00,,,0.00,Wunderground v.1.15,2013-05-26 20:37:00,
2013-05-26 15:42:00,83.6,62.4,29.98,WSW,244,3.0,6.0,49,0.00,,,0.00,Wunderground v.1.15,2013-05-26 20:42:00,
2013-05-26 15:47:00,83.6,62.4,29.97,SE,137,3.0,11.0,49,0.00,,,0.00,Wunderground v.1.15,2013-05-26 20:47:00,
2013-05-26 15:52:00,83.8,63.2,29.97,South,171,4.0,7.0,50,0.00,,,0.00,Wunderground v.1.15,2013-05-26 20:52:00,
2013-05-26 15:57:00,83.8,62.0,29.97,SSW,212,0.0,10.0,48,0.00,,,0.00,Wunderground v.1.15,2013-05-26 20:57:00,
2013-05-26 16:02:00,83.8,62.0,29.96,SW,218,4.0,12.0,48,0.00,,,0.00,Wunderground v.1.15,2013-05-26 21:02:00,
2013-05-26 16:07:00,83.8,63.2,29.96,SSW,213,5.0,12.0,50,0.00,,,0.00,Wunderground v.1.15,2013-05-26 21:07:00,
2013-05-26 16:12:00,83.8,62.6,29.96,SSW,202,4.0,9.0,49,0.00,,,0.00,Wunderground v.1.15,2013-05-26 21:12:00,
2013-05-26 16:17:00,83.8,63.7,29.96,South,179,4.0,10.0,51,0.00,,,0.00,Wunderground v.1.15,2013-05-26 21:17:00,
2013-05-26 16:22:00,83.8,62.0,29.96,South,173,6.0,10.0,48,0.00,,,0.00,Wunderground v.1.15,2013-05-26 21:22:00,
2013-05-26 16:27:00,83.8,63.7,29.96,SW,227,1.0,10.0,51,0.00,,,0.00,Wunderground v.1.15,2013-05-26 21:27:00,
2013-05-26 16:32:00,83.8,62.6,29.96,South,179,0.0,7.0,49,0.00,,,0.00,Wunderground v.1.15,2013-05-26 21:32:00,
2013-05-26 16:37:00,83.6,61.2,29.96,SE,135,1.0,7.0,47,0.00,,,0.00,Wunderground v.1.15,2013-05-26 21:37:00,
2013-05-26 16:42:00,83.6,61.2,29.96,SW,236,4.0,11.0,47,0.00,,,0.00,Wunderground v.1.15,2013-05-26 21:42:00,
2013-05-26 16:47:00,83.6,61.2,29.96,SSW,200,2.0,11.0,47,0.00,,,0.00,Wunderground v.1.15,2013-05-26 21:47:00,
2013-05-26 16:52:00,83.6,61.2,29.96,South,180,1.0,3.0,47,0.00,,,0.00,Wunderground v.1.15,2013-05-26 21:52:00,
2013-05-26 16:58:00,83.6,60.0,29.96,SSW,204,5.0,13.0,45,0.00,,,0.00,Wunderground v.1.15,2013-05-26 21:58:00,
2013-05-26 17:03:00,83.6,61.8,29.95,SE,126,0.0,5.0,48,0.00,,,0.00,Wunderground v.1.15,2013-05-26 22:03:00,
2013-05-26 17:08:00,83.6,61.8,29.95,SSE,158,0.0,8.0,48,0.00,,,0.00,Wunderground v.1.15,2013-05-26 22:08:00,
2013-05-26 17:13:00,83.4,60.4,29.95,SE,144,0.0,8.0,46,0.00,,,0.00,Wunderground v.1.15,2013-05-26 22:13:00,
2013-05-26 17:18:00,83.2,60.9,29.95,SSW,198,1.0,10.0,47,0.00,,,0.00,Wunderground v.1.15,2013-05-26 22:18:00,
2013-05-26 17:23:00,83.2,61.5,29.95,SW,221,5.0,10.0,48,0.00,,,0.00,Wunderground v.1.15,2013-05-26 22:23:00,
2013-05-26 17:28:00,83.2,63.2,29.95,South,176,5.0,10.0,51,0.00,,,0.00,Wunderground v.1.15,2013-05-26 22:28:00,
2013-05-26 17:33:00,83.0,60.7,29.94,SSE,164,1.0,9.0,47,0.00,,,0.00,Wunderground v.1.15,2013-05-26 22:33:00,
2013-05-26 17:38:00,82.8,61.1,29.94,SE,140,1.0,10.0,48,0.00,,,0.00,Wunderground v.1.15,2013-05-26 22:38:00,
2013-05-26 17:43:00,82.6,60.9,29.94,SW,234,3.0,5.0,48,0.00,,,0.00,Wunderground v.1.15,2013-05-26 22:43:00,
2013-05-26 17:48:00,82.4,60.7,29.95,South,183,1.0,8.0,48,0.00,,,0.00,Wunderground v.1.15,2013-05-26 22:48:00,
2013-05-26 17:53:00,82.2,62.3,29.95,South,186,2.0,4.0,51,0.00,,,0.00,Wunderground v.1.15,2013-05-26 22:53:00,
2013-05-26 17:58:00,81.8,60.8,29.95,South,182,1.0,5.0,49,0.00,,,0.00,Wunderground v.1.15,2013-05-26 22:58:00,
2013-05-26 18:03:00,81.8,60.8,29.94,WSW,246,0.0,9.0,49,0.00,,,0.00,Wunderground v.1.15,2013-05-26 23:03:00,
2013-05-26 18:08:00,81.8,60.8,29.94,SW,226,4.0,9.0,49,0.00,,,0.00,Wunderground v.1.15,2013-05-26 23:08:00,
2013-05-26 18:13:00,81.6,61.7,29.94,WSW,244,2.0,3.0,51,0.00,,,0.00,Wunderground v.1.15,2013-05-26 23:13:00,
2013-05-26 18:18:00,81.6,61.2,29.94,South,189,1.0,6.0,50,0.00,,,0.00,Wunderground v.1.15,2013-05-26 23:18:00,
2013-05-26 18:23:00,81.6,61.2,29.94,SE,145,1.0,3.0,50,0.00,,,0.00,Wunderground v.1.15,2013-05-26 23:23:00,
2013-05-26 18:28:00,81.6,61.2,29.94,South,188,0.0,4.0,50,0.00,,,0.00,Wunderground v.1.15,2013-05-26 23:28:00,
2013-05-26 18:33:00,81.4,61.0,29.93,WSW,239,4.0,6.0,50,0.00,,,0.00,Wunderground v.1.15,2013-05-26 23:33:00,
2013-05-26 18:38:00,81.2,60.8,29.93,SSW,202,0.0,9.0,50,0.00,,,0.00,Wunderground v.1.15,2013-05-26 23:38:00,
2013-05-26 18:43:00,80.9,61.1,29.93,South,178,4.0,5.0,51,0.00,,,0.00,Wunderground v.1.15,2013-05-26 23:43:00,
2013-05-26 18:48:00,80.9,61.6,29.93,SSW,192,0.0,5.0,52,0.00,,,0.00,Wunderground v.1.15,2013-05-26 23:48:00,
2013-05-26 18:53:00,80.9,62.2,29.93,SW,219,3.0,4.0,53,0.00,,,0.00,Wunderground v.1.15,2013-05-26 23:53:00,
2013-05-26 18:58:00,80.7,61.4,29.93,ESE,118,2.0,6.0,52,0.00,,,0.00,Wunderground v.1.15,2013-05-26 23:58:00,
2013-05-26 19:03:00,80.7,61.4,29.93,South,186,4.0,10.0,52,0.00,,,0.00,Wunderground v.1.15,2013-05-27 00:03:00,
2013-05-26 19:08:00,80.7,61.4,29.93,SSE,166,5.0,10.0,52,0.00,,,0.00,Wunderground v.1.15,2013-05-27 00:08:00,
2013-05-26 19:13:00,80.5,61.8,29.93,South,169,0.0,3.0,53,0.00,,,0.00,Wunderground v.1.15,2013-05-27 00:13:00,
2013-05-26 19:18:00,80.5,62.3,29.93,SE,138,3.0,7.0,54,0.00,,,0.00,Wunderground v.1.15,2013-05-27 00:18:00,
2013-05-26 19:23:00,80.3,63.2,29.93,SSE,168,2.0,9.0,56,0.00,,,0.00,Wunderground v.1.15,2013-05-27 00:23:00,
2013-05-26 19:28:00,80.1,63.0,29.93,SSE,163,3.0,9.0,56,0.00,,,0.00,Wunderground v.1.15,2013-05-27 00:28:00,
2013-05-26 19:33:00,79.9,63.8,29.93,SSW,192,3.0,6.0,58,0.00,,,0.00,Wunderground v.1.15,2013-05-27 00:33:00,
2013-05-26 19:38:00,79.6,63.5,29.93,SSE,162,4.0,9.0,58,0.00,,,0.00,Wunderground v.1.15,2013-05-27 00:38:00,
2013-05-26 19:43:00,79.4,63.8,29.93,SSE,148,0.0,7.0,59,0.00,,,0.00,Wunderground v.1.15,2013-05-27 00:43:00,
2013-05-26 19:48:00,79.0,63.9,29.94,SSE,166,5.0,9.0,60,0.00,,,0.00,Wunderground v.1.15,2013-05-27 00:48:00,
2013-05-26 19:53:00,78.6,64.0,29.94,SSE,168,0.0,3.0,61,0.00,,,0.00,Wunderground v.1.15,2013-05-27 00:53:00,
2013-05-26 19:59:00,78.5,63.9,29.94,ESE,122,4.0,7.0,61,0.00,,,0.00,Wunderground v.1.15,2013-05-27 00:59:00,
2013-05-26 20:04:00,78.1,64.0,29.94,SSE,154,5.0,5.0,62,0.00,,,0.00,Wunderground v.1.15,2013-05-27 01:04:00,
2013-05-26 20:09:00,77.9,64.3,29.94,SSE,167,0.0,8.0,63,0.00,,,0.00,Wunderground v.1.15,2013-05-27 01:09:00,
2013-05-26 20:14:00,77.4,64.3,29.94,SSW,202,1.0,5.0,64,0.00,,,0.00,Wunderground v.1.15,2013-05-27 01:14:00,
2013-05-26 20:19:00,77.4,64.3,29.94,SSE,158,0.0,7.0,64,0.00,,,0.00,Wunderground v.1.15,2013-05-27 01:19:00,
2013-05-26 20:24:00,77.0,64.3,29.94,SSE,153,3.0,6.0,65,0.00,,,0.00,Wunderground v.1.15,2013-05-27 01:24:00,
2013-05-26 20:29:00,76.7,64.5,29.94,SSE,152,1.0,6.0,66,0.00,,,0.00,Wunderground v.1.15,2013-05-27 01:29:00,
2013-05-26 20:34:00,76.5,64.3,29.94,SSE,164,2.0,4.0,66,0.00,,,0.00,Wunderground v.1.15,2013-05-27 01:34:00,
2013-05-26 20:39:00,76.1,64.3,29.94,South,170,2.0,6.0,67,0.00,,,0.00,Wunderground v.1.15,2013-05-27 01:39:00,
2013-05-26 20:44:00,76.0,64.2,29.94,SSE,167,2.0,6.0,67,0.00,,,0.00,Wunderground v.1.15,2013-05-27 01:44:00,
2013-05-26 20:49:00,75.8,64.5,29.93,South,173,0.0,6.0,68,0.00,,,0.00,Wunderground v.1.15,2013-05-27 01:49:00,
2013-05-26 20:54:00,75.6,64.3,29.93,SE,138,2.0,6.0,68,0.00,,,0.00,Wunderground v.1.15,2013-05-27 01:54:00,
2013-05-26 20:59:00,75.6,64.3,29.93,South,180,3.0,6.0,68,0.00,,,0.00,Wunderground v.1.15,2013-05-27 01:59:00,
2013-05-26 21:04:00,75.4,64.1,29.93,SSE,167,2.0,7.0,68,0.00,,,0.00,Wunderground v.1.15,2013-05-27 02:04:00,
2013-05-26 21:09:00,75.3,64.4,29.93,South,185,2.0,7.0,69,0.00,,,0.00,Wunderground v.1.15,2013-05-27 02:09:00,
2013-05-26 21:14:00,75.1,64.2,29.93,SSW,210,3.0,6.0,69,0.00,,,0.00,Wunderground v.1.15,2013-05-27 02:14:00,
2013-05-26 21:19:00,75.1,64.2,29.93,SSE,152,1.0,6.0,69,0.00,,,0.00,Wunderground v.1.15,2013-05-27 02:19:00,
2013-05-26 21:24:00,74.9,64.0,29.93,SE,141,1.0,6.0,69,0.00,,,0.00,Wunderground v.1.15,2013-05-27 02:24:00,
2013-05-26 21:29:00,74.9,64.5,29.93,SSE,168,3.0,6.0,70,0.00,,,0.00,Wunderground v.1.15,2013-05-27 02:29:00,
2013-05-26 21:34:00,74.6,64.2,29.94,South,182,3.0,5.0,70,0.00,,,0.00,Wunderground v.1.15,2013-05-27 02:34:00,
2013-05-26 21:39:00,74.4,64.4,29.94,SSE,164,0.0,5.0,71,0.00,,,0.00,Wunderground v.1.15,2013-05-27 02:39:00,
2013-05-26 21:44:00,74.4,64.4,29.94,SSE,155,1.0,10.0,71,0.00,,,0.00,Wunderground v.1.15,2013-05-27 02:44:00,
2013-05-26 21:49:00,74.2,64.6,29.95,SSE,153,4.0,10.0,72,0.00,,,0.00,Wunderground v.1.15,2013-05-27 02:49:00,
2013-05-26 21:54:00,74.0,64.4,29.95,South,178,2.0,9.0,72,0.00,,,0.00,Wunderground v.1.15,2013-05-27 02:54:00,
2013-05-26 21:59:00,73.9,64.3,29.95,SSE,165,6.0,9.0,72,0.00,,,0.00,Wunderground v.1.15,2013-05-27 02:59:00,
2013-05-26 22:04:00,73.9,64.3,29.95,SE,136,3.0,6.0,72,0.00,,,0.00,Wunderground v.1.15,2013-05-27 03:04:00,
2013-05-26 22:09:00,73.9,64.3,29.95,South,178,3.0,9.0,72,0.00,,,0.00,Wunderground v.1.15,2013-05-27 03:09:00,
2013-05-26 22:14:00,73.7,64.1,29.95,South,181,4.0,10.0,72,0.00,,,0.00,Wunderground v.1.15,2013-05-27 03:14:00,
2013-05-26 22:19:00,73.7,64.5,29.94,SE,142,0.0,10.0,73,0.00,,,0.00,Wunderground v.1.15,2013-05-27 03:19:00,
2013-05-26 22:24:00,73.5,64.3,29.94,South,178,1.0,5.0,73,0.00,,,0.00,Wunderground v.1.15,2013-05-27 03:24:00,
2013-05-26 22:29:00,73.3,64.5,29.94,South,169,3.0,9.0,74,0.00,,,0.00,Wunderground v.1.15,2013-05-27 03:29:00,
2013-05-26 22:34:00,73.2,64.4,29.94,South,188,3.0,3.0,74,0.00,,,0.00,Wunderground v.1.15,2013-05-27 03:34:00,
2013-05-26 22:39:00,73.2,64.4,29.94,SSE,159,3.0,7.0,74,0.00,,,0.00,Wunderground v.1.15,2013-05-27 03:39:00,
2013-05-26 22:44:00,73.0,64.6,29.94,SSE,168,6.0,6.0,75,0.00,,,0.00,Wunderground v.1.15,2013-05-27 03:44:00,
2013-05-26 22:49:00,73.0,64.6,29.94,SE,139,0.0,10.0,75,0.00,,,0.00,Wunderground v.1.15,2013-05-27 03:49:00,
2013-05-26 22:54:00,72.8,64.4,29.94,SW,227,3.0,4.0,75,0.00,,,0.00,Wunderground v.1.15,2013-05-27 03:54:00,
2013-05-26 22:59:00,72.8,64.0,29.94,SE,142,5.0,7.0,74,0.00,,,0.00,Wunderground v.1.15,2013-05-27 03:59:00,
2013-05-26 23:01:00,72.8,64.0,29.94,SE,145,2.0,4.0,74,0.00,,,0.00,Wunderground v.1.15,2013-05-27 04:01:00,
2013-05-26 23:06:00,72.7,63.9,29.94,SSW,200,3.0,7.0,74,0.00,,,0.00,Wunderground v.1.15,2013-05-27 04:06:00,
2013-05-26 23:11:00,72.5,63.7,29.94,SSW,192,2.0,4.0,74,0.00,,,0.00,Wunderground v.1.15,2013-05-27 04:11:00,
2013-05-26 23:17:00,72.3,63.5,29.95,SSW,201,0.0,5.0,74,0.00,,,0.00,Wunderground v.1.15,2013-05-27 04:17:00,
2013-05-26 23:22:00,72.1,63.7,29.95,South,187,2.0,2.0,75,0.00,,,0.00,Wunderground v.1.15,2013-05-27 04:22:00,
2013-05-26 23:27:00,71.8,63.4,29.95,South,187,0.0,4.0,75,0.00,,,0.00,Wunderground v.1.15,2013-05-27 04:27:00,
2013-05-26 23:32:00,71.5,63.5,29.95,South,187,1.0,1.0,76,0.00,,,0.00,Wunderground v.1.15,2013-05-27 04:32:00,
2013-05-26 23:37:00,71.1,63.1,29.95,South,187,0.0,3.0,76,0.00,,,0.00,Wunderground v.1.15,2013-05-27 04:37:00,
2013-05-26 23:42:00,70.9,63.0,29.95,South,186,0.0,4.0,76,0.00,,,0.00,Wunderground v.1.15,2013-05-27 04:42:00,
2013-05-26 23:47:00,70.8,62.9,29.95,SE,138,3.0,6.0,76,0.00,,,0.00,Wunderground v.1.15,2013-05-27 04:47:00,
2013-05-26 23:52:00,70.4,62.5,29.95,SSE,155,0.0,1.0,76,0.00,,,0.00,Wunderground v.1.15,2013-05-27 04:52:00,
2013-05-26 23:57:00,70.3,62.4,29.95,SSE,159,0.0,3.0,76,0.00,,,0.00,Wunderground v.1.15,2013-05-27 04:57:00,